Location: İstanbul
(41.0082°N, 28.9784°E)
Time: 01:14:07
(UTC+03:00)

DOVE 4 - Pass Details

Date: 27 April 2024
Orbit: 582 x 778 km, 97.7° (Epoch: 28 May)

Event Time Altitude Azimuth Distance (km) Brightness Sun altitude
Rises 21:30:53 0° 33° (NNE) 2,950 ? -16.4°
Reaches altitude 10° 21:33:56 10° 56° (NE) 2,076 ? -16.9°
Enters shadow 21:35:11 14° 71° (ENE) 1,856 ? -17.1°
